Flag for United Kingdom Weather past 2 weeks in Newport (Isle of Wight), England, United Kingdom

Now
48 °F

Cool.


Feels Like: 40 °F
Forecast: 45 / 54 °F
Wind: 23 mph from West

Location: Saint Catherine's Point

Current Time: Mar 30, 2015 at 1:21:17 AM

Latest Report: Mar 30, 2015 at 12:00 AM


Visibility: N/A

Pressure: 29.63 "Hg

Humidity: 93%

Dew point: 46 °F

Location of Newport (Isle of Wight)Location

Historic Weather in Newport (Isle of Wight) — Graph

°F

Newport (Isle of Wight) temperature yesterday

Maximum temperature yesterday: 50 °F (at 12:00 PM)
Minimum temperature yesterday: 48 °F (at 12:00 AM)
Average temperature yesterday: 49 °F

Past Weeks' High & Low Weather Summary

 TemperatureHumidityPressure
High54 °F (Mar 18, 3:00 PM)100% (Mar 28, 7:00 AM)30.51 "Hg (Mar 28, 7:00 AM)
Low37 °F (Mar 25, 6:00 AM)52% (Mar 26, 7:00 PM)29.50 "Hg (Mar 29, 2:00 PM)
Average45 °F82%30.11 "Hg
* Reported Mar 14 11:00 PM — Midnight between Mar 29 and Mar 30, Newport (Isle of Wight), Weather by CustomWeather, © 2015

Note: Actual official high and low records may vary slightly from our data, if they occured in-between our weather recording intervals... More about our weather records

Advertising

Newport (Isle of Wight) weather history for previous 24 hours

 ConditionsComfort  
Time TempWeatherWind HumidityBarometerVisibility
12:00 AM
Mon, Mar 30
48 °FCool.23 mph93%29.63 "HgN/A
11:00 PM
Sun, Mar 29
48 °FCool.24 mph87%29.62 "HgN/A
9:00 PM49 °FCool.24 mph90%29.60 "HgN/A
8:00 PM50 °FCool.26 mph87%29.60 "HgN/A
7:00 PM50 °FCool.29 mph88%29.59 "HgN/A
6:00 PM50 °FCool.28 mph92%29.56 "HgN/A
5:00 PM50 °FCool.36 mph95%29.50 "HgN/A
4:00 PM50 °FCool.38 mph97%29.50 "HgN/A
3:00 PM50 °FCool.43 mph98%29.50 "HgN/A
2:00 PM50 °FCool.45 mph97%29.50 "HgN/A
1:00 PM50 °FCool.45 mph97%29.53 "HgN/A
12:00 PM50 °FCool.43 mph97%29.55 "HgN/A
11:00 AM50 °FCool.39 mph99%29.58 "HgN/A
10:00 AM50 °FCool.36 mph99%29.61 "HgN/A
9:00 AM49 °FCool.37 mph100%29.64 "HgN/A
8:00 AM49 °FCool.36 mph100%29.65 "HgN/A
7:00 AM49 °FCool.31 mph100%29.68 "HgN/A
6:00 AM49 °FCool.29 mph100%29.71 "HgN/A
5:00 AM49 °FCool.32 mph100%29.72 "HgN/A
3:00 AM48 °FCool.30 mph98%29.78 "HgN/A
2:00 AM48 °FCool.33 mph98%29.79 "HgN/A
Weather by CustomWeather, © 2015

See weather overviewHow to use our weather pages